| time (UTC) | temp F | wind direction | speed knots | gust knots | rain 1hr in | rain 24hr in | rain mn in | humidity % | barometer mb |
| 20260506044544 | 46 | 70 | 0.0 | 0.0 | 0.03 | 1.24 | 0.01 | 96 | 1001.3 |
| 20260506043036 | 46 | 70 | 0.0 | 0.0 | 0.04 | 1.24 | 0.01 | 95 | 1001.3 |
| 20260506041533 | 47 | 340 | 0.0 | 0.9 | 0.05 | 1.23 | 0.00 | 95 | 1001.3 |
| 20260506040030 | 48 | 332 | 0.0 | 0.0 | 0.09 | 1.23 | 0.00 | 96 | 1001.3 |
| 20260506034529 | 48 | 332 | 0.0 | 0.0 | 0.10 | 1.21 | 1.21 | 97 | 1001.3 |
| 20260506033034 | 48 | 332 | 0.0 | 0.0 | 0.12 | 1.20 | 1.20 | 97 | 1001.3 |
| 20260506031533 | 49 | 332 | 0.0 | 0.9 | 0.12 | 1.17 | 1.17 | 97 | 1001.3 |
| 20260506030050 | 49 | 332 | 0.0 | 1.7 | 0.12 | 1.13 | 1.13 | 97 | 1001.3 |
| 20260506024530 | 49 | 340 | 0.0 | 0.0 | 0.12 | 1.11 | 1.11 | 96 | 1001.3 |
| 20260506023026 | 49 | 340 | 0.0 | 0.9 | 0.09 | 1.08 | 1.08 | 96 | 1001.3 |
| 20260506021524 | 49 | 340 | 0.0 | 0.9 | 0.07 | 1.05 | 1.05 | 96 | 1001.3 |
| 20260506020024 | 49 | 340 | 0.0 | 0.0 | 0.06 | 1.02 | 1.02 | 96 | 1001.3 |
| 20260506014523 | 49 | 340 | 0.0 | 0.0 | 0.04 | 0.99 | 0.99 | 96 | 1001.3 |
| 20260506013023 | 49 | 340 | 0.0 | 0.0 | 0.05 | 0.99 | 0.99 | 96 | 1001.3 |
| 20260506011531 | 49 | 341 | 0.0 | 0.0 | 0.04 | 0.98 | 0.98 | 96 | 1001.3 |
| 20260506010022 | 49 | 340 | 0.0 | 0.0 | 0.02 | 0.96 | 0.96 | 96 | 1001.3 |
| 20260506004540 | 49 | 340 | 0.0 | 0.0 | 0.02 | 0.95 | 0.95 | 96 | 1001.3 |
| 20260506003026 | 49 | 340 | 0.0 | 0.0 | 0.03 | 0.94 | 0.94 | 96 | 1001.3 |
| 20260506001522 | 49 | 341 | 0.0 | 0.0 | 0.11 | 0.94 | 0.94 | 96 | 1001.3 |
| 20260506000023 | 49 | 341 | 0.0 | 0.0 | 0.18 | 0.94 | 0.94 | 96 | 1001.3 |
| 20260505234519 | 49 | 343 | 0.0 | 1.7 | 0.21 | 0.92 | 0.92 | 95 | 1001.3 |
| 20260505233017 | 49 | 256 | 0.0 | 0.9 | 0.27 | 0.91 | 0.91 | 95 | 1001.3 |
| 20260505231522 | 49 | 253 | 0.0 | 0.9 | 0.28 | 0.83 | 0.83 | 95 | 1001.3 |
| 20260505230015 | 49 | 253 | 0.0 | 2.6 | 0.23 | 0.76 | 0.76 | 95 | 1001.3 |
| 20260505224515 | 49 | 242 | 0.0 | 0.9 | 0.22 | 0.70 | 0.70 | 95 | 1001.3 |
| 20260505223013 | 49 | 275 | 0.0 | 0.0 | 0.21 | 0.64 | 0.64 | 94 | 1001.3 |
| 20260505221512 | 49 | 275 | 0.0 | 0.0 | 0.16 | 0.55 | 0.55 | 94 | 1001.3 |
| 20260505220011 | 49 | 275 | 0.0 | 0.9 | 0.15 | 0.52 | 0.52 | 94 | 1001.3 |
| 20260505214512 | 49 | 275 | 0.0 | 1.7 | 0.12 | 0.48 | 0.48 | 94 | 1001.3 |
| 20260505213008 | 49 | 287 | 0.9 | 3.5 | 0.10 | 0.43 | 0.43 | 93 | 1001.3 |
| 20260505211509 | 50 | 296 | 1.7 | 5.2 | 0.12 | 0.39 | 0.39 | 93 | 1001.3 |
| 20260505210005 | 50 | 304 | 2.6 | 4.3 | 0.16 | 0.37 | 0.37 | 94 | 1001.3 |
| 20260505204504 | 51 | 304 | 2.6 | 4.3 | 0.23 | 0.35 | 0.35 | 94 | 1001.3 |
| 20260505203004 | 51 | 292 | 1.7 | 2.6 | 0.27 | 0.33 | 0.33 | 93 | 1001.3 |
| 20260505201558 | 52 | 87 | 0.0 | 0.9 | 0.26 | 0.27 | 0.27 | 93 | 1001.3 |
| 20260505200056 | 53 | 218 | 0.0 | 2.6 | 0.21 | 0.21 | 0.21 | 93 | 1001.3 |
| 20260505194559 | 53 | 228 | 0.0 | 3.5 | 0.12 | 0.12 | 0.12 | 92 | 1001.3 |
| 20260505193110 | 54 | 154 | 0.0 | 2.6 | 0.06 | 0.06 | 0.06 | 91 | 1001.3 |
| 20260505191558 | 54 | 236 | 0.0 | 4.3 | 0.01 | 0.01 | 0.01 | 90 | 1001.3 |
| 20260505190049 | 54 | 274 | 0.9 | 3.5 | 0.00 | 0.00 | 0.00 | 90 | 1001.3 |
| 20260505184554 | 55 | 284 | 0.9 | 2.6 | 0.00 | 0.00 | 0.00 | 90 | 1001.3 |
| 20260505183049 | 55 | 290 | 0.0 | 2.6 | 0.00 | 0.00 | 0.00 | 90 | 1001.3 |
| 20260505181548 | 55 | 200 | 0.0 | 3.5 | 0.00 | 0.00 | 0.00 | 90 | 1001.3 |
| 20260505180047 | 54 | 184 | 0.0 | 2.6 | 0.00 | 0.00 | 0.00 | 90 | 1001.3 |
| 20260505174547 | 54 | 291 | 1.7 | 3.5 | 0.00 | 0.00 | 0.00 | 90 | 1001.3 |
| 20260505173046 | 55 | 295 | 2.6 | 3.5 | 0.00 | 0.00 | 0.00 | 90 | 1001.3 |
| 20260505171548 | 55 | 298 | 1.7 | 4.3 | 0.00 | 0.00 | 0.00 | 89 | 1001.3 |
| 20260505170042 | 55 | 289 | 5.2 | 7.0 | 0.00 | 0.00 | 0.00 | 88 | 1001.3 |
| 20260505164544 | 56 | 291 | 6.1 | 7.8 | 0.00 | 0.00 | 0.00 | 87 | 1001.3 |
| 20260505163040 | 56 | 294 | 5.2 | 7.0 | 0.00 | 0.00 | 0.00 | 85 | 1001.3 |
| 20260505161532 | 58 | 296 | 5.2 | 7.8 | 0.00 | 0.00 | 0.00 | 82 | 1001.3 |
| 20260505153025 | 63 | 282 | 1.7 | 6.1 | 0.00 | 0.00 | 0.00 | 74 | 1001.3 |
| 20260505151527 | 63 | 247 | 1.7 | 10.4 | 0.00 | 0.00 | 0.00 | 74 | 1001.3 |
| 20260505124512 | 65 | 236 | 2.6 | 13.0 | 0.00 | 0.00 | 0.00 | 68 | 1001.3 |
| 20260505123011 | 65 | 150 | 1.7 | 12.2 | 0.00 | 0.00 | 0.00 | 68 | 1001.3 |
| 20260505121510 | 65 | 121 | 3.5 | 8.7 | 0.00 | 0.00 | 0.00 | 66 | 1001.3 |
| 20260505120014 | 65 | 128 | 2.6 | 8.7 | 0.00 | 0.00 | 0.00 | 65 | 1001.3 |
| 20260505114509 | 65 | 224 | 1.7 | 8.7 | 0.00 | 0.00 | 0.00 | 65 | 1001.3 |
| 20260505113012 | 66 | 195 | 3.5 | 12.2 | 0.00 | 0.00 | 0.00 | 64 | 1001.3 |
| 20260505111519 | 66 | 252 | 3.5 | 12.2 | 0.00 | 0.00 | 0.00 | 64 | 1001.3 |
| 20260505101503 | 66 | 193 | 4.3 | 11.3 | 0.00 | 0.00 | 0.00 | 66 | 1001.3 |
| 20260505100003 | 67 | 182 | 4.3 | 9.6 | 0.00 | 0.00 | 0.00 | 65 | 1001.3 |
| 20260505094502 | 67 | 231 | 2.6 | 9.6 | 0.00 | 0.00 | 0.00 | 64 | 1001.3 |
| 20260505093003 | 67 | 243 | 4.3 | 11.3 | 0.00 | 0.00 | 0.00 | 64 | 1001.3 |
| 20260505091501 | 68 | 237 | 2.6 | 12.2 | 0.00 | 0.00 | 0.00 | 64 | 1001.3 |
| 20260505090123 | 66 | 179 | 2.6 | 13.0 | 0.00 | 0.00 | 0.00 | 67 | 1001.3 |
| 20260505084615 | 63 | 211 | 1.7 | 7.8 | 0.00 | 0.00 | 0.00 | 72 | 1001.3 |
| 20260505083111 | 63 | 192 | 2.6 | 7.0 | 0.00 | 0.00 | 0.00 | 72 | 1001.3 |
| 20260505081602 | 65 | 222 | 1.7 | 7.0 | 0.00 | 0.00 | 0.00 | 68 | 1001.3 |
| 20260505080100 | 68 | 224 | 3.5 | 10.4 | 0.00 | 0.00 | 0.00 | 62 | 1001.3 |
| 20260505074551 | 69 | 144 | 4.3 | 13.9 | 0.00 | 0.00 | 0.00 | 61 | 1001.3 |
| 20260505073055 | 70 | 271 | 5.2 | 16.5 | 0.00 | 0.00 | 0.00 | 60 | 1001.3 |
| 20260505071605 | 69 | 145 | 7.0 | 16.5 | 0.00 | 0.00 | 0.00 | 60 | 1001.3 |
| 20260505070150 | 69 | 266 | 3.5 | 12.2 | 0.00 | 0.00 | 0.00 | 61 | 1001.3 |
| 20260505064547 | 70 | 96 | 4.3 | 15.6 | 0.00 | 0.00 | 0.00 | 61 | 1001.3 |
| 20260505063051 | 70 | 155 | 6.1 | 15.6 | 0.00 | 0.00 | 0.00 | 60 | 1001.3 |
| 20260505061546 | 70 | 238 | 4.3 | 13.0 | 0.00 | 0.00 | 0.00 | 61 | 1001.3 |
| 20260505060056 | 69 | 91 | 2.6 | 13.0 | 0.00 | 0.00 | 0.00 | 63 | 1001.3 |
| 20260505054539 | 68 | 153 | 3.5 | 11.3 | 0.00 | 0.00 | 0.00 | 65 | 1001.3 |
| 20260505053039 | 68 | 74 | 2.6 | 9.6 | 0.00 | 0.00 | 0.00 | 65 | 1001.3 |
| 20260505051537 | 68 | 105 | 2.6 | 10.4 | 0.00 | 0.00 | 0.00 | 66 | 1001.3 |